Regional Weather Roundup
Issued by NWS

Home | Current Version | Previous Version | Graphics & Text | Print | Product List | Glossary On
Versions: 1 2 3 4 5 6 7 8 9 10 11 12 13 14 15 16 17 18 19 20 21 22 23 24 25 26 27 28 29 30 31 32 33 34 35 36 37 38 39 40 41 42 43 44 45 46 47 48 49 50
000
ASUS45 KTFX 231504
RWRMT
MONTANA HOURLY WEATHER ROUNDUP
NATIONAL WEATHER SERVICE GREAT FALLS MT
904 AM MDT SAT AUG 23 2014

NOTE: "FAIR" INDICATES FEW OR NO CLOUDS BELOW 12000 FEET WITH NO
SIGNIFICANT WEATHER AND/OR OBSTRUCTIONS TO VISIBILITY.

* THESE STATIONS ARE NOT UNDER NWS QUALITY CONTROL. THEY DO NOT
   REPORT WEATHER SUCH AS PRECIPITATION OR FOG.

MTZ001>007-043-231600-
WEST OF THE DIVIDE
CITY           SKY/WX    TMP DP  RH WIND       PRES   REMARKS
KALISPELL      CLOUDY    54  43  67 N10       30.19R
MISSOULA       LGT RAIN  54  46  74 NW9       30.16R
BUTTE          RAIN      45  43  93 NW10      30.13R VSB 3
MULLAN PASS    SUNNY     45  37  74 CALM      30.20R
* ESSEX        N/A       50  44  80 S3         N/A
* LINCOLN      N/A       45  44  96 NE3        N/A
* LOOKOUT PASS N/A       47  39  74 E1         N/A
* POLSON       N/A       52  42  69 N2         N/A
* RONAN APT    PTSUNNY   54  45  72 N/A        N/A
* SEELEY LAKE  N/A       48  45  89 N/A        N/A
* THOMP F APT  PTCLDY    46  43  89 N3G11      N/A
$$

MTZ008-052>055-231600-
SOUTHWEST MONTANA
CITY           SKY/WX    TMP DP  RH WIND       PRES   REMARKS
BOZEMAN        LGT RAIN  48  46  93 W9        30.06R
DILLON         LGT RAIN  46  45  96 NE12      30.08R
W YELLOWSTONE  CLOUDY    48  45  89 SW6       30.05R
* THREE FORKS  CLOUDY    48  32  54 N/A        N/A
* BOULDER HILL N/A       41  38  89 N16G22     N/A
* MONIDA PASS  N/A       43  43 100 W12        N/A
* RAYNOLDS PAS N/A       42  41  96 N16        N/A
* WHITEHALL    N/A       47  44  89 N10G19     N/A
* WISE RIVER   N/A       45  40  83 S7G12      N/A
$$

MTZ009>010-012-014-046-048-049-054-231600-
EAST SLOPES AND CENTRAL MONTANA
CITY           SKY/WX    TMP DP  RH WIND       PRES   REMARKS
CUT BANK       LGT RAIN  45  43  93 N20       30.24R
GREAT FALLS    HVY RAIN  50  50 100 N17G29    30.10R VSB 1 3/4
HELENA         RAIN      46  45  96 NW12      30.13R VSB 3
MALMSTROM AFB  RAIN      52  50  93 N22G32    30.11R
* CONRAD       CLOUDY    46  46 100 NW16G23    N/A
* DEARBORN     N/A       47  46  96 S1         N/A
* EAST GLACIER N/A       41  39  93 NE17G23    N/A
* MONARCH      N/A       45  42  89 NW9        N/A
* PENDROY      N/A       43  43 100 N15G27     N/A
* ROGERS PASS  N/A       41  40  96 S9G15      N/A
* SAINT MARY   N/A       41  40  96 NE6G12     N/A
* SWEET GRASS  N/A       45  45 100 N17        N/A
$$

MTZ011-013-016-021-035-040-045-047-050-051-231600-
NORTH CENTRAL MONTANA
CITY           SKY/WX    TMP DP  RH WIND       PRES   REMARKS
HAVRE          LGT RAIN  54  52  93 NE17      30.11S
LEWISTOWN      HVY RAIN  54  52  93 N12G18    30.01R VSB 2 1/2
* CHESTER      N/A       50  48  93 NE9G16     N/A
* DENTON       N/A       53  51  93 N14G20     N/A
* GEYSER       N/A       50  48  93 W5G11      N/A
* JUDITH GAP   N/A       50  50 100 NW22G30    N/A
$$

MTZ017>020-022>027-061-062-231600-
NORTHEAST MONTANA
CITY           SKY/WX    TMP DP  RH WIND       PRES   REMARKS
GLASGOW        RAIN      54  52  93 NE28G35   30.00F VSB 2 1/2
GLENDIVE       CLOUDY    57  57 100 NE20      29.97S
JORDAN         CLOUDY    57  55  93 NE21G26   29.94S
SIDNEY         CLOUDY    57  55  93 NE12      30.03S
WOLF POINT     HVY RAIN  55  54  96 NE23G31   30.04R VSB 1 3/4
* BEAVER HILL  N/A       57  56  96 E21G33     N/A
* CIRCLE       N/A       56  55  96 NE17       N/A
* LINDSAY DVD  N/A       55  55 100 NE21G29    N/A
* SACO         N/A       54  52  93 NE16G21    N/A
$$

MTZ028>042-056>058-231600-
SOUTHCENTRAL AND SOUTHEAST MONTANA
CITY           SKY/WX    TMP DP  RH WIND       PRES   REMARKS
BAKER          LGT RAIN  61  57  87 E25G32    29.93F
BILLINGS       LGT RAIN  57  55  93 SW7       29.88S VSB M1/4
LIVINGSTON     RAIN      50  48  93 CALM      30.01S VSB 3
MILES CITY     FOG       63  61  93 N8        29.87F
* LAUREL APT   CLOUDY    55  54  96 N/A        N/A
* ROUNDUP APT  CLOUDY    55  54  96 N15G22     N/A
* ALZADA       N/A       61  61 100 NE12       N/A
* HYSHAM       N/A       61  58  90 E12        N/A
* LAME DEER    N/A       58  57  96 NE6        N/A
* REED POINT   N/A       53  52  96 W7         N/A
* ROSCOE HILL  N/A       51  47  86 W4G10      N/A
$$

REGIONAL REPORTS...DAKOTAS
CITY           SKY/WX    TMP DP  RH WIND       PRES   REMARKS
WILLISTON      LGT RAIN  55  54  96 NE13      30.07S
DICKINSON      LGT RAIN  57  55  93 NE16      29.97F
BEACH          RAIN      57  57 100 E21       29.98F VSB 2
CROSBY         FOG       54  54 100 NE15      30.12S VSB 3
TIOGA          PTSUNNY   54  54 100 NE17G28   30.10F
WATFORD CITY   FOG       55  55 100 E14G22    30.03R
BISMARCK       LGT RAIN  61  59  93 NE15      30.00F
GRAND FORKS    FOG       61  61 100 N13       30.04F VSB M1/4
FARGO          CLOUDY    72  68  87 NE7       29.98F
BUFFALO SD     CLOUDY    61  61 100 E21G28    29.85F
RAPID CITY     CLOUDY    66  63  90 NE9       29.87F
$$

REGIONAL REPORTS...WYOMING/IDAHO/WASHINGTON
CITY           SKY/WX    TMP DP  RH WIND       PRES   REMARKS
GILLETTE       CLOUDY    63  59  87 SE14      29.88F
SHERIDAN       CLOUDY    61  57  87 W7        29.86F
CODY           CLOUDY    54  52  93 CALM      29.95F
YELLOWSTONE LA PTSUNNY   45  43  93 CALM      30.11S
SALMON         CLOUDY    52  48  86 CALM      30.06S
MULLAN PASS    SUNNY     45  37  74 CALM      30.20S
SAND POINT     SUNNY     57  45  64 N12       30.15S
SPOKANE        SUNNY     59  43  56 N8        30.13S
$$

REGIONAL REPORTS...SASKATCHEWAN
CITY           SKY/WX    TMP DP  RH WIND       PRES   REMARKS
SWIFT CURRENT  CLOUDY    52  50  93 E17G28    30.21R

$$



USA.gov is the U.S. government's official web portal to all federal, state and local government web resources and services.